カタログに戻る

SCOUT G-1 DEB

運用中PO
NORAD 18525·DEBRIS·🇺🇸 United States

打ち上げ Nov 14, 1986 から Vandenberg Space Force Base

Loading…

次のパス (今後24時間)

TLE

最新Source: Space-Track

元期: Sep 14, 2026, 04:33 UTC

1 18525U 86088D   26257.18970705  .00000163  00000-0  13196-3 0  9993
2 18525  89.9219 342.1699 0005904 146.5093 242.0371 13.86427449 10582

AllMySatでSCOUT G-1 DEBをリアルタイム追跡

Download on the App Store